TimeMST,TemperatureF,Dew PointF,Humidity,Sea Level PressureIn,VisibilityMPH,Wind Direction,Wind SpeedMPH,Gust SpeedMPH,PrecipitationIn,Events,Conditions,WindDirDegrees,DateUTC
12:15 AM,23.9,15.3,70,29.83,10.0,ENE,12.7,-,N/A,,Clear,70,2013-02-20 07:15:00
12:35 AM,24.3,15.6,70,29.83,10.0,ENE,12.7,-,N/A,,Clear,70,2013-02-20 07:35:00
12:55 AM,24.6,15.8,69,29.82,10.0,East,12.7,-,N/A,,Clear,80,2013-02-20 07:55:00
1:15 AM,24.6,16.2,70,29.81,10.0,East,13.8,-,N/A,,Clear,80,2013-02-20 08:15:00
1:35 AM,23.2,15.6,73,29.81,10.0,ENE,16.1,-,N/A,,Clear,70,2013-02-20 08:35:00
1:55 AM,23.0,15.8,74,29.81,10.0,ENE,15.0,-,N/A,,Clear,70,2013-02-20 08:55:00
2:15 AM,23.0,15.8,74,29.79,10.0,ENE,15.0,-,N/A,,Clear,70,2013-02-20 09:15:00
2:35 AM,23.0,16.3,76,29.79,10.0,ENE,13.8,-,N/A,,Clear,70,2013-02-20 09:35:00
2:55 AM,23.7,16.7,75,29.79,10.0,ENE,12.7,-,N/A,,Clear,70,2013-02-20 09:55:00
3:15 AM,23.9,16.7,74,29.78,10.0,East,12.7,-,N/A,,Clear,80,2013-02-20 10:15:00
3:35 AM,23.9,17.1,75,29.78,10.0,East,13.8,-,N/A,,Clear,90,2013-02-20 10:35:00
3:55 AM,26.2,18.0,71,29.78,10.0,ESE,15.0,-,N/A,,Clear,110,2013-02-20 10:55:00
4:15 AM,25.7,17.6,71,29.78,10.0,ESE,13.8,-,N/A,,Clear,110,2013-02-20 11:15:00
4:35 AM,25.7,18.1,73,29.78,10.0,ESE,17.3,-,N/A,,Clear,110,2013-02-20 11:35:00
4:55 AM,25.5,18.3,74,29.78,10.0,ESE,16.1,-,N/A,,Clear,120,2013-02-20 11:55:00
5:15 AM,24.8,18.5,77,29.77,10.0,ESE,17.3,-,N/A,,Clear,110,2013-02-20 12:15:00
5:35 AM,24.6,18.5,78,29.78,10.0,ESE,15.0,-,N/A,,Clear,110,2013-02-20 12:35:00
5:55 AM,23.9,18.1,79,29.78,10.0,ESE,15.0,21.9,N/A,,Clear,110,2013-02-20 12:55:00
6:15 AM,23.0,18.0,81,29.78,10.0,ESE,16.1,19.6,N/A,,Clear,110,2013-02-20 13:15:00
6:35 AM,23.4,18.1,80,29.78,10.0,ESE,15.0,19.6,N/A,,Clear,110,2013-02-20 13:35:00
6:55 AM,23.0,18.0,81,29.79,10.0,ESE,11.5,-,N/A,,Clear,110,2013-02-20 13:55:00
7:15 AM,23.5,18.3,80,29.79,10.0,ESE,16.1,-,N/A,,Clear,120,2013-02-20 14:15:00
7:35 AM,23.9,18.3,79,29.79,10.0,ESE,13.8,20.7,N/A,,Clear,110,2013-02-20 14:35:00
7:55 AM,25.0,18.9,78,29.79,10.0,ESE,13.8,-,N/A,,Clear,120,2013-02-20 14:55:00
8:15 AM,25.9,19.4,76,29.79,10.0,ESE,10.4,-,N/A,,Mostly Cloudy,120,2013-02-20 15:15:00
8:35 AM,27.0,19.8,74,29.79,10.0,ESE,11.5,-,N/A,,Overcast,120,2013-02-20 15:35:00
8:55 AM,27.5,20.3,74,29.79,10.0,ESE,11.5,-,N/A,,Overcast,120,2013-02-20 15:55:00
9:15 AM,28.0,22.1,78,29.79,10.0,ESE,15.0,-,N/A,,Overcast,120,2013-02-20 16:15:00
9:35 AM,28.0,24.1,85,29.79,10.0,ESE,13.8,-,N/A,,Overcast,110,2013-02-20 16:35:00
9:55 AM,25.0,22.6,91,29.79,2.5,East,12.7,-,N/A,,Overcast,90,2013-02-20 16:55:00
10:15 AM,25.0,23.7,95,29.79,1.2,East,12.7,-,N/A,,Overcast,100,2013-02-20 17:15:00
10:35 AM,25.9,25.0,96,29.78,1.2,East,11.5,-,N/A,,Overcast,90,2013-02-20 17:35:00
10:55 AM,26.6,25.7,96,29.78,1.5,ENE,16.1,19.6,N/A,,Overcast,70,2013-02-20 17:55:00
11:15 AM,23.5,22.6,96,29.78,1.5,ENE,18.4,-,N/A,,Overcast,70,2013-02-20 18:15:00
11:35 AM,24.3,23.4,96,29.77,1.8,East,16.1,-,N/A,,Overcast,80,2013-02-20 18:35:00
12:15 PM,26.8,26.2,98,29.74,3.0,East,11.5,-,N/A,,Overcast,90,2013-02-20 19:15:00
12:35 PM,27.3,26.4,96,29.73,7.0,ESE,17.3,21.9,N/A,,Overcast,110,2013-02-20 19:35:00
12:55 PM,27.0,25.5,94,29.72,10.0,ESE,19.6,25.3,N/A,,Overcast,110,2013-02-20 19:55:00
1:15 PM,26.6,24.8,93,29.71,10.0,ESE,18.4,-,N/A,,Overcast,110,2013-02-20 20:15:00
1:55 PM,27.5,25.2,91,29.70,10.0,East,16.1,-,N/A,,Overcast,100,2013-02-20 20:55:00
2:15 PM,27.1,24.6,90,29.70,10.0,ESE,17.3,21.9,N/A,,Overcast,110,2013-02-20 21:15:00
2:35 PM,27.0,24.1,89,29.69,10.0,East,16.1,20.7,N/A,,Overcast,100,2013-02-20 21:35:00
2:55 PM,27.1,23.7,87,29.70,10.0,ESE,17.3,21.9,N/A,,Overcast,110,2013-02-20 21:55:00
3:15 PM,26.2,23.0,88,29.70,10.0,East,18.4,23.0,N/A,,Overcast,90,2013-02-20 22:15:00
3:35 PM,26.1,22.3,86,29.70,10.0,East,17.3,-,N/A,,Overcast,100,2013-02-20 22:35:00
3:55 PM,25.7,22.3,87,29.70,4.0,ESE,15.0,19.6,N/A,,Overcast,110,2013-02-20 22:55:00
4:15 PM,25.2,21.9,87,29.70,10.0,East,16.1,19.6,N/A,,Overcast,90,2013-02-20 23:15:00
4:35 PM,24.4,21.9,90,29.70,4.0,ESE,12.7,-,N/A,,Overcast,110,2013-02-20 23:35:00
4:55 PM,23.7,21.7,92,29.70,10.0,East,13.8,19.6,N/A,,Overcast,100,2013-02-20 23:55:00
5:15 PM,22.6,20.7,92,29.71,1.0,East,13.8,-,N/A,,Overcast,80,2013-02-21 00:15:00
5:35 PM,21.9,20.3,93,29.71,1.5,East,11.5,-,N/A,,Overcast,80,2013-02-21 00:35:00
5:55 PM,21.7,20.3,94,29.71,1.5,East,12.7,-,N/A,,Overcast,90,2013-02-21 00:55:00
6:15 PM,21.6,19.9,93,29.72,1.5,East,12.7,16.1,N/A,,Overcast,80,2013-02-21 01:15:00
6:35 PM,21.2,19.9,95,29.73,4.0,ENE,11.5,-,N/A,,Overcast,70,2013-02-21 01:35:00
6:55 PM,20.8,19.0,93,29.73,7.0,ENE,12.7,-,N/A,,Overcast,60,2013-02-21 01:55:00
7:15 PM,20.7,18.9,93,29.73,10.0,ENE,16.1,-,N/A,,Overcast,70,2013-02-21 02:15:00
7:35 PM,20.3,18.9,94,29.73,10.0,ENE,15.0,-,N/A,,Overcast,60,2013-02-21 02:35:00
7:55 PM,19.4,17.6,93,29.73,10.0,ENE,13.8,-,N/A,,Overcast,60,2013-02-21 02:55:00
8:15 PM,19.2,17.6,93,29.74,5.0,NE,16.1,-,N/A,,Overcast,50,2013-02-21 03:15:00
8:35 PM,18.5,16.7,93,29.74,0.5,NE,16.1,-,N/A,,Overcast,40,2013-02-21 03:35:00
9:15 PM,17.6,15.4,91,29.74,7.0,NE,17.3,-,N/A,,Overcast,40,2013-02-21 04:15:00
9:35 PM,17.6,15.4,91,29.74,5.0,NE,17.3,-,N/A,,Overcast,40,2013-02-21 04:35:00
9:55 PM,16.7,14.7,92,29.74,3.0,NE,16.1,-,N/A,,Overcast,50,2013-02-21 04:55:00
10:15 PM,16.7,14.5,91,29.75,7.0,NE,16.1,-,N/A,,Overcast,40,2013-02-21 05:15:00
10:35 PM,16.5,14.0,90,29.74,7.0,NE,17.3,21.9,N/A,,Overcast,50,2013-02-21 05:35:00
10:55 PM,16.0,13.6,90,29.74,7.0,NE,16.1,23.0,N/A,,Overcast,50,2013-02-21 05:55:00
11:15 PM,15.6,13.6,92,29.74,10.0,NE,16.1,-,N/A,,Overcast,50,2013-02-21 06:15:00
11:35 PM,15.3,13.1,91,29.74,10.0,ENE,17.3,-,N/A,,Overcast,60,2013-02-21 06:35:00
11:55 PM,15.3,13.5,93,29.74,7.0,NE,16.1,-,N/A,,Overcast,50,2013-02-21 06:55:00